EDW310D LSZH-EFKT

Flight info

Callsign EDW310D
Flight time N/A
Altitude 34000
Route DEGES Z1 ETAGO DCT HAREM/N0441F350 DCT LOHRE DCT BERXO DCT MAKEL DCT LEBDA DCT PERKE DCT EVIMI
Aircraft A320/M-SDE2E3FGHIJ1RWXY/LB1

Departure

Time 2026-02-18 10:14
Airport Zürich Airport (LSZH)

Arrival

Time N/A
Airport Kittilä International Airport (EFKT)
Time Latitude Longitude Altitude Speed Heading
2026-02-18 09:32 47.45418 8.55872 1407 ft 0 kts 186°
2026-02-18 09:54 47.45421 8.55873 1397 ft 1 kts 186°
2026-02-18 09:55 47.45438 8.55876 1406 ft 3 kts 190°
2026-02-18 09:55 47.45458 8.55882 1404 ft 3 kts 198°
2026-02-18 09:55 47.45477 8.55893 1400 ft 3 kts 211°
2026-02-18 09:55 47.45491 8.55910 1405 ft 3 kts 242°
2026-02-18 09:56 47.45496 8.55928 1403 ft 1 kts 276°
2026-02-18 09:56 47.45496 8.55929 1403 ft 0 kts 276°
2026-02-18 09:59 47.45496 8.55921 1405 ft 2 kts 276°
2026-02-18 09:59 47.45499 8.55878 1401 ft 6 kts 276°
2026-02-18 10:00 47.45503 8.55817 1406 ft 6 kts 275°
2026-02-18 10:00 47.45508 8.55745 1397 ft 8 kts 276°
2026-02-18 10:00 47.45512 8.55698 1397 ft 2 kts 276°
2026-02-18 10:00 47.45513 8.55679 1398 ft 4 kts 276°
2026-02-18 10:01 47.45516 8.55636 1397 ft 2 kts 276°
2026-02-18 10:01 47.45522 8.55553 1397 ft 5 kts 275°
2026-02-18 10:01 47.45523 8.55532 1397 ft 0 kts 275°
2026-02-18 10:02 47.45525 8.55506 1397 ft 6 kts 275°
2026-02-18 10:02 47.45501 8.55437 1401 ft 10 kts 214°
2026-02-18 10:02 47.45437 8.55391 1402 ft 11 kts 206°
2026-02-18 10:03 47.45379 8.55334 1407 ft 7 kts 238°
2026-02-18 10:03 47.45386 8.55262 1404 ft 9 kts 292°
2026-02-18 10:03 47.45410 8.55170 1403 ft 10 kts 288°
2026-02-18 10:03 47.45402 8.55069 1401 ft 10 kts 241°
2026-02-18 10:04 47.45341 8.55022 1401 ft 10 kts 197°
2026-02-18 10:04 47.45270 8.54985 1403 ft 10 kts 212°
2026-02-18 10:04 47.45262 8.54914 1398 ft 7 kts 296°
2026-02-18 10:04 47.45313 8.54869 1402 ft 8 kts 336°
2026-02-18 10:05 47.45342 8.54851 1402 ft 1 kts 336°
2026-02-18 10:05 47.45342 8.54850 1402 ft 0 kts 336°
2026-02-18 10:09 47.45391 8.54818 1404 ft 6 kts 334°
2026-02-18 10:09 47.45440 8.54784 1399 ft 11 kts 335°
2026-02-18 10:10 47.45520 8.54694 1399 ft 17 kts 296°
2026-02-18 10:10 47.45565 8.54491 1400 ft 24 kts 287°
2026-02-18 10:10 47.45620 8.54237 1398 ft 28 kts 288°
2026-02-18 10:10 47.45673 8.53999 1397 ft 21 kts 288°
2026-02-18 10:11 47.45704 8.53848 1397 ft 14 kts 287°
2026-02-18 10:11 47.45769 8.53748 1401 ft 12 kts 340°
2026-02-18 10:11 47.45794 8.53745 1396 ft 0 kts
2026-02-18 10:12 47.45795 8.53745 1396 ft 1 kts
2026-02-18 10:13 47.45819 8.53748 1406 ft 6 kts
2026-02-18 10:13 47.45889 8.53801 1406 ft 5 kts 88°
2026-02-18 10:13 47.45887 8.53824 1403 ft 1 kts 96°
2026-02-18 10:14 47.45868 8.53966 1401 ft 42 kts 99°
2026-02-18 10:14 47.45822 8.54757 1398 ft 111 kts 96°
2026-02-18 10:14 47.45721 8.56214 1424 ft 169 kts 96°
2026-02-18 10:14 47.45567 8.57911 2280 ft 162 kts 97°
2026-02-18 10:15 47.45445 8.59601 2885 ft 173 kts 97°
2026-02-18 10:15 47.45318 8.61474 3100 ft 194 kts 97°
2026-02-18 10:15 47.45196 8.63576 3297 ft 216 kts 92°
2026-02-18 10:15 47.45285 8.65927 3543 ft 242 kts 84°
2026-02-18 10:16 47.45535 8.68450 3991 ft 258 kts 82°
2026-02-18 10:16 47.45843 8.71097 4742 ft 264 kts 82°
2026-02-18 10:16 47.46159 8.73808 5444 ft 272 kts 82°
2026-02-18 10:16 47.46469 8.76620 6039 ft 283 kts 84°
2026-02-18 10:17 47.46683 8.79549 6711 ft 287 kts 86°
2026-02-18 10:17 47.46335 8.85414 8064 ft 292 kts 105°
2026-02-18 10:17 47.45873 8.88354 8633 ft 295 kts 105°
2026-02-18 10:18 47.45414 8.91344 9272 ft 301 kts 105°
2026-02-18 10:18 47.44967 8.94357 9911 ft 308 kts 104°
2026-02-18 10:18 47.44514 8.97478 10512 ft 313 kts 104°
2026-02-18 10:18 47.44064 9.00654 11115 ft 319 kts 102°
2026-02-18 10:19 47.43984 9.03972 11545 ft 332 kts 79°
2026-02-18 10:19 47.44780 9.07228 11699 ft 348 kts 53°
2026-02-18 10:19 47.46474 9.09819 11898 ft 355 kts 27°
2026-02-18 10:19 47.48717 9.11282 12380 ft 354 kts 13°
2026-02-18 10:20 47.51057 9.12459 13045 ft 357 kts 13°
2026-02-18 10:20 47.53379 9.13632 13729 ft 359 kts 13°
2026-02-18 10:20 47.55747 9.14830 14313 ft 361 kts 12°
2026-02-18 10:20 47.58128 9.16039 14906 ft 363 kts 12°
2026-02-18 10:21 47.60523 9.17261 15495 ft 365 kts 12°
2026-02-18 10:21 47.65354 9.19726 16673 ft 370 kts 12°
2026-02-18 10:21 47.67796 9.20973 17216 ft 373 kts 12°
2026-02-18 10:22 47.70256 9.22230 17758 ft 375 kts 11°
2026-02-18 10:22 47.72700 9.23477 18290 ft 378 kts 11°
2026-02-18 10:22 47.75194 9.24753 18772 ft 380 kts 11°
2026-02-18 10:22 47.77703 9.26041 19256 ft 383 kts 11°
2026-02-18 10:23 47.80225 9.27337 19737 ft 385 kts 11°
2026-02-18 10:23 47.82763 9.28640 20216 ft 387 kts 11°
2026-02-18 10:23 47.85319 9.29950 20711 ft 389 kts 11°
2026-02-18 10:23 47.87889 9.31267 21154 ft 392 kts 11°
2026-02-18 10:24 47.90477 9.32600 21605 ft 395 kts 11°
2026-02-18 10:24 47.93074 9.33941 22047 ft 397 kts 11°
2026-02-18 10:24 47.95693 9.35295 22467 ft 399 kts 10°
2026-02-18 10:24 47.98327 9.36660 22898 ft 402 kts 10°
2026-02-18 10:25 48.00939 9.38017 23340 ft 403 kts 10°
2026-02-18 10:25 48.06250 9.40778 24205 ft 405 kts 10°
2026-02-18 10:25 48.08905 9.42157 24616 ft 405 kts 10°
2026-02-18 10:26 48.11569 9.43539 25009 ft 406 kts